Tracking 23440 objects as of 12-Jun-2021
HD Live streaming from Space Station
objects crossing your sky now

PSLV R/B

Track PSLV R/B now!
10-day predictions


NORAD ID: 29713
Int'l Code: 2007-001E
Perigee: 600.7 km
Apogee: 635.9 km
Inclination: 98.0 °
Period: 96.9 minutes
Semi major axis: 6989 km
RCS: 9.9132 m2 (large)
Launch date: January 10, 2007
Source: India (IND)
Launch site: SRIHARIKOTA (SRI)

Note: This is a ROCKET BODY
aabbcc
Your satellite tracking list
Your tracking list is empty




NASA's NSSDC Master Catalog

Two Line Element Set (TLE):
1 29713U 07001E   21163.04492079  .00000218  00000-0  31419-4 0  9991
2 29713  97.9598 138.4121 0025167   9.5167 350.6519 14.85783659780190
Source of the keplerian elements: AFSPC